Content
SEND FEEDBACK

Daily
Averages
Monthly
Summary
United States of America

TAMUNING, GUAM


Home > North America > United States > Guam
Elevation: 250 feet     Latitude: 13 29N     Longitude: 144 47E

WEATHER
 
SELECT A DAY
Number of Records: 341,716;   Date Range: 1/1/95 - 7/22/14
 
SHARE

PRINT THIS DATA

[ ← Previous Day ]
WEATHER ALMANAC - JANUARY 10, 2013
[ Next Day → ]
[ °C ]   °F
Weather ElementAverageHighLow
Temperature74.7 °F83.5 °F (2:55 pm)67.5 °F (8:55 am)
Dewpoint70.8 °F77 °F (2:57 pm)62.8 °F (2:55 am)
Humidity87.9 %94 % (5:30 am)74 % (2:45 pm)
Barometer29.79 in29.83 in (8:35 am)29.74 in (2:55 pm)
Wind Speed14.2 mph21.9 mph (12:56 pm)
Wind Gust28.8 mph (1:06 pm)
Weather ElementAverage
Visibility8.8 mi
Wind DirectionENE (80.3 °)

Weather ElementTotal
Precipitation0.11 in
Cooling Degree Days10.5 (Base 65)
Growing Degree Days25.5 (Base 50)
Averaged from 151 records on January 10, 2013
WEATHER CONDITIONS BREAKOUT
WIND DIRECTION BREAKOUT
WEATHER BY HOUR - JANUARY 10, 2013
[ °C ]   °F
Local TimeTemperatureDewpointHumidityBarometerVisibilityWind DirectionWind SpeedGust SpeedPrecipitationEventsConditions
12:22 AM75.2 °F68.0 °F78 %29.80 in10.0 miENE (70°)13.8 mphScattered Clouds
12:39 AM73.4 °F68.0 °F83 %29.80 in10.0 miENE (70°)11.5 mphMostly Cloudy
12:49 AM73.4 °F68.0 °F83 %29.80 in10.0 miENE (70°)16.1 mphScattered Clouds
12:51 AM73.4 °F66.2 °F78 %29.79 in10.0 miEast (80°)13.8 mphMostly Cloudy
12:55 AM70.7 °F64.2 °F80 %29.79 in10.0 miENE (70°)15.0 mphMostly Cloudy
1:02 AM77.0 °F71.6 °F83 %29.79 in10.0 miENE (70°)12.7 mphScattered Clouds
1:03 AM77.0 °F71.6 °F83 %29.79 in10.0 miENE (70°)11.5 mphMostly Cloudy
1:08 AM77.0 °F71.6 °F83 %29.79 in10.0 miENE (70°)15.0 mphScattered Clouds
1:11 AM77.0 °F69.8 °F78 %29.79 in10.0 miENE (70°)13.8 mphMostly Cloudy
1:13 AM77.0 °F69.8 °F78 %29.79 in10.0 miENE (70°)15.0 mphScattered Clouds
1:55 AM70.0 °F63.1 °F79 %29.79 in10.0 miEast (80°)10.4 mphClear
2:55 AM68.5 °F62.8 °F82 %29.76 in10.0 miEast (80°)6.9 mphClear
3:55 AM69.3 °F64.6 °F85 %29.76 in10.0 miCalmClear
4:39 AM69.8 °F64.4 °F83 %29.76 in10.0 miENE (70°)6.9 mphMostly Cloudy
4:49 AM68.0 °F64.4 °F88 %29.76 in10.0 miENE (70°)8.1 mphScattered Clouds
4:55 AM68.9 °F64.4 °F86 %29.77 in10.0 miENE (70°)6.9 mphScattered Clouds
4:58 AM69.8 °F66.2 °F88 %29.76 in10.0 miENE (70°)6.9 mphMostly Cloudy
5:01 AM69.8 °F66.2 °F88 %29.77 in10.0 miENE (60°)8.1 mphRainLight Rain
5:30 AM69.8 °F68.0 °F94 %29.77 in10.0 miENE (60°)11.5 mphOvercast
5:33 AM69.8 °F68.0 °F94 %29.78 in10.0 miENE (60°)10.4 mphOvercast
5:34 AM69.8 °F68.0 °F94 %29.78 in10.0 miNE (50°)10.4 mphOvercast
5:39 AM69.8 °F68.0 °F94 %29.77 in10.0 miNE (50°)10.4 mphOvercast
5:43 AM69.8 °F68.0 °F94 %29.77 in10.0 miENE (60°)11.5 mphOvercast
5:46 AM69.8 °F68.0 °F94 %29.77 in10.0 miENE (60°)10.4 mphOvercast
5:47 AM69.8 °F68.0 °F94 %29.77 in10.0 miENE (60°)9.2 mphOvercast
5:50 AM69.8 °F68.0 °F94 %29.77 in10.0 miENE (60°)10.4 mphOvercast
5:53 AM69.8 °F68.0 °F94 %29.77 in10.0 miENE (70°)9.2 mphOvercast
5:54 AM69.8 °F68.0 °F94 %29.77 in10.0 miENE (70°)9.2 mphOvercast
5:55 AM69.4 °F67.1 °F92 %29.77 in10.0 miENE (70°)9.2 mph0.01 inOvercast
6:02 AM68.0 °F66.2 °F94 %29.78 in8.0 miENE (70°)18.4 mph23.0 mphMostly Cloudy
6:03 AM68.0 °F66.2 °F94 %29.78 in7.0 miENE (70°)18.4 mph23.0 mphRainLight Rain
6:06 AM68.0 °F66.2 °F94 %29.78 in4.0 miEast (80°)18.4 mph23.0 mphRainRain
6:11 AM68.0 °F66.2 °F94 %29.78 in3.0 miENE (70°)17.3 mphRainLight Rain
6:17 AM68.0 °F66.2 °F94 %29.78 in6.0 miENE (70°)13.8 mphOvercast
6:21 AM68.0 °F66.2 °F94 %29.78 in8.0 miENE (60°)15.0 mphOvercast
6:31 AM68.0 °F66.2 °F94 %29.78 in10.0 miENE (70°)10.4 mphMostly Cloudy
6:37 AM68.0 °F66.2 °F94 %29.79 in10.0 miENE (70°)10.4 mphMostly Cloudy
6:41 AM68.0 °F66.2 °F94 %29.79 in10.0 miENE (70°)10.4 mphMostly Cloudy
6:42 AM68.0 °F66.2 °F94 %29.79 in10.0 miENE (70°)10.4 mphMostly Cloudy
6:44 AM68.0 °F66.2 °F94 %29.79 in10.0 miENE (70°)9.2 mphMostly Cloudy
6:45 AM69.8 °F68.0 °F94 %29.79 in10.0 miENE (70°)9.2 mphMostly Cloudy
6:47 AM69.8 °F68.0 °F94 %29.79 in10.0 miENE (70°)10.4 mphMostly Cloudy
6:55 AM69.1 °F66.7 °F92 %29.79 in10.0 miEast (80°)11.5 mph0.01 inPartly Cloudy
7:55 AM69.4 °F66.4 °F90 %29.81 in10.0 miEast (90°)10.4 mph0.01 inScattered Clouds
7:59 AM69.8 °F66.2 °F88 %29.81 in10.0 miEast (90°)11.5 mphMostly Cloudy
8:29 AM69.8 °F66.2 °F88 %29.82 in10.0 miEast (100°)18.4 mph23.0 mphOvercast
8:35 AM68.0 °F66.2 °F94 %29.83 in4.0 miEast (80°)19.6 mph23.0 mphLight Drizzle
8:38 AM68.0 °F66.2 °F94 %29.83 in2.5 miENE (70°)18.4 mph23.0 mphLight Drizzle
8:39 AM68.0 °F66.2 °F94 %29.83 in2.0 miENE (70°)17.3 mph23.0 mphLight Drizzle
8:41 AM68.0 °F66.2 °F94 %29.83 in1.8 miEast (80°)13.8 mph23.0 mphLight Drizzle
8:50 AM68.0 °F66.2 °F94 %29.83 in2.0 miEast (80°)8.1 mphLight Drizzle
8:52 AM68.0 °F66.2 °F94 %29.83 in2.5 miEast (80°)11.5 mphLight Drizzle
8:53 AM68.0 °F64.4 °F88 %29.83 in3.0 miEast (80°)13.8 mphLight Drizzle
8:55 AM67.5 °F64.9 °F92 %29.83 in4.0 miEast (80°)13.8 mph0.01 inLight Drizzle
8:59 AM68.0 °F64.4 °F88 %29.83 in9.0 miEast (80°)11.5 mphOvercast
9:09 AM68.0 °F66.2 °F94 %29.83 in10.0 miENE (70°)8.1 mphOvercast
9:36 AM71.6 °F68.0 °F88 %29.82 in10.0 miENE (70°)11.5 mphOvercast
9:41 AM73.4 °F71.6 °F94 %29.83 in5.0 miESE (110°)11.5 mphRainLight Rain
9:42 AM73.4 °F69.8 °F88 %29.83 in2.5 miESE (110°)12.7 mphRainLight Rain
9:43 AM71.6 °F69.8 °F94 %29.83 in2.0 miEast (90°)11.5 mphRainLight Rain
9:44 AM71.6 °F69.8 °F94 %29.83 in1.5 miEast (80°)12.7 mphRainLight Rain
9:46 AM73.4 °F71.6 °F94 %29.83 in1.2 miEast (80°)10.4 mphRainHeavy Rain
9:47 AM75.2 °F73.4 °F94 %29.83 in1.0 miEast (80°)9.2 mphRainHeavy Rain
9:48 AM75.2 °F73.4 °F94 %29.82 in1.0 miEast (80°)9.2 mphRainHeavy Rain
9:50 AM75.2 °F73.4 °F94 %29.82 in1.0 miEast (80°)10.4 mphRainLight Rain
9:51 AM75.2 °F73.4 °F94 %29.82 in1.2 miEast (90°)10.4 mphRainLight Rain
9:52 AM77.0 °F73.4 °F89 %29.82 in1.5 miEast (90°)9.2 mphRainLight Rain
9:54 AM77.0 °F73.4 °F89 %29.82 in2.5 miEast (90°)8.1 mphRainLight Rain
9:55 AM76.3 °F73.6 °F91 %29.82 in3.0 miEast (90°)8.1 mph0.07 inRainLight Rain
9:58 AM77.0 °F73.4 °F89 %29.82 in8.0 miEast (100°)9.2 mphRainLight Rain
10:00 AM77.0 °F75.2 °F94 %29.82 in10.0 miEast (90°)9.2 mphMostly Cloudy
10:01 AM77.0 °F75.2 °F94 %29.82 in10.0 miEast (90°)10.4 mphMostly Cloudy
10:03 AM78.8 °F75.2 °F89 %29.82 in10.0 miEast (90°)10.4 mphMostly Cloudy
10:05 AM78.8 °F75.2 °F89 %29.82 in10.0 miEast (80°)10.4 mphScattered Clouds
10:08 AM78.8 °F75.2 °F89 %29.82 in10.0 miEast (80°)11.5 mphMostly Cloudy
10:24 AM78.8 °F75.2 °F89 %29.81 in10.0 miESE (110°)16.1 mph23.0 mphMostly Cloudy
10:33 AM77.0 °F75.2 °F94 %29.81 in8.0 miEast (100°)17.3 mphOvercast
10:50 AM77.0 °F75.2 °F94 %29.81 in10.0 miESE (110°)12.7 mph20.7 mphOvercast
10:51 AM77.0 °F75.2 °F94 %29.81 in10.0 miEast (100°)13.8 mph20.7 mphOvercast
10:55 AM77.5 °F74.8 °F91 %29.81 in10.0 miEast (100°)12.7 mph0.00 inOvercast
11:02 AM78.8 °F75.2 °F89 %29.81 in10.0 miEast (100°)12.7 mphMostly Cloudy
11:05 AM77.0 °F73.4 °F89 %29.81 in10.0 miEast (100°)12.7 mphMostly Cloudy
11:08 AM77.0 °F73.4 °F89 %29.81 in10.0 miEast (90°)12.7 mphOvercast
11:10 AM78.8 °F75.2 °F89 %29.81 in10.0 miEast (90°)12.7 mphOvercast
11:16 AM78.8 °F75.2 °F89 %29.80 in10.0 miEast (90°)17.3 mph20.7 mphOvercast
11:32 AM78.8 °F75.2 °F89 %29.79 in10.0 miEast (100°)13.8 mphMostly Cloudy
11:39 AM80.6 °F75.2 °F84 %29.78 in10.0 miEast (100°)16.1 mphMostly Cloudy
11:55 AM75.2 °F69.1 °F81 %29.78 in10.0 miEast (100°)15.0 mphMostly Cloudy
12:09 PM80.6 °F73.4 °F79 %29.78 in10.0 miEast (90°)18.4 mph26.5 mphMostly Cloudy
12:38 PM75.2 °F68.0 °F78 %29.78 in9.0 miEast (80°)19.6 mph24.2 mphLight Drizzle
12:50 PM73.4 °F66.2 °F78 %29.78 in10.0 miEast (90°)19.6 mphOvercast
12:55 PM75.6 °F70.0 °F83 %29.78 in10.0 miEast (100°)20.7 mph0.00 inOvercast
12:56 PM75.2 °F69.8 °F83 %29.78 in10.0 miEast (100°)21.9 mphMostly Cloudy
1:06 PM71.6 °F68.0 °F88 %29.77 in10.0 miESE (110°)19.6 mph28.8 mphMostly Cloudy
1:07 PM71.6 °F68.0 °F88 %29.77 in10.0 miESE (110°)20.7 mph27.6 mphMostly Cloudy
1:16 PM71.6 °F68.0 °F88 %29.78 in10.0 miEast (100°)17.3 mph26.5 mphOvercast
1:20 PM71.6 °F66.2 °F83 %29.77 in10.0 miESE (110°)16.1 mph24.2 mphOvercast
1:55 PM72.5 °F66.4 °F81 %29.77 in10.0 miEast (90°)15.0 mphOvercast
1:59 PM73.4 °F68.0 °F83 %29.77 in10.0 miEast (90°)17.3 mph23.0 mphOvercast
2:04 PM73.4 °F68.0 °F83 %29.77 in10.0 miEast (90°)18.4 mph23.0 mphOvercast
2:45 PM82.4 °F73.4 °F74 %29.75 in10.0 miEast (90°)20.7 mph25.3 mphMostly Cloudy
2:55 PM83.5 °F75.4 °F76 %29.74 in10.0 miENE (70°)21.9 mphMostly Cloudy
2:56 PM82.4 °F75.2 °F79 %29.74 in10.0 miENE (70°)20.7 mphMostly Cloudy
2:57 PM82.4 °F77.0 °F84 %29.74 in10.0 miENE (70°)19.6 mph26.5 mphMostly Cloudy
2:59 PM82.4 °F77.0 °F84 %29.74 in10.0 miEast (80°)19.6 mph26.5 mphMostly Cloudy
3:01 PM82.4 °F77.0 °F84 %29.74 in10.0 miENE (70°)19.6 mph26.5 mphMostly Cloudy
3:08 PM80.6 °F77.0 °F89 %29.74 in10.0 miENE (70°)18.4 mphMostly Cloudy
3:12 PM80.6 °F75.2 °F84 %29.74 in10.0 miEast (80°)18.4 mph25.3 mphMostly Cloudy
3:19 PM82.4 °F75.2 °F79 %29.74 in10.0 miENE (70°)18.4 mph25.3 mphMostly Cloudy
3:55 PM80.2 °F75.6 °F86 %29.75 in10.0 miEast (90°)15.0 mphOvercast
4:17 PM80.6 °F75.2 °F84 %29.75 in10.0 miEast (90°)15.0 mphMostly Cloudy
4:55 PM80.6 °F72.7 °F77 %29.77 in10.0 miEast (90°)19.6 mph24.2 mphClear
5:51 PM78.8 °F75.2 °F89 %29.78 in10.0 miENE (70°)18.4 mph24.2 mphMostly Cloudy
5:55 PM79.3 °F75.0 °F87 %29.78 in10.0 miENE (70°)16.1 mphScattered Clouds
5:56 PM78.8 °F75.2 °F89 %29.78 in10.0 miEast (80°)17.3 mphMostly Cloudy
6:10 PM78.8 °F75.2 °F89 %29.78 in10.0 miENE (70°)16.1 mphOvercast
6:21 PM78.8 °F75.2 °F89 %29.78 in10.0 miENE (70°)19.6 mphMostly Cloudy
6:23 PM78.8 °F73.4 °F83 %29.78 in10.0 miEast (80°)17.3 mphMostly Cloudy
6:25 PM78.8 °F73.4 °F83 %29.78 in10.0 miENE (70°)19.6 mphMostly Cloudy
6:26 PM78.8 °F73.4 °F83 %29.78 in10.0 miENE (70°)18.4 mphMostly Cloudy
6:28 PM78.8 °F73.4 °F83 %29.79 in10.0 miEast (80°)15.0 mphMostly Cloudy
6:32 PM78.8 °F73.4 °F83 %29.78 in10.0 miENE (70°)17.3 mphMostly Cloudy
6:46 PM78.8 °F73.4 °F83 %29.79 in10.0 miENE (70°)17.3 mphMostly Cloudy
6:48 PM78.8 °F73.4 °F83 %29.79 in10.0 miENE (70°)18.4 mphMostly Cloudy
6:55 PM78.6 °F74.3 °F87 %29.79 in9.0 miEast (100°)18.4 mph26.5 mphMostly Cloudy
7:26 PM78.8 °F73.4 °F83 %29.80 in10.0 miEast (80°)18.4 mphOvercast
7:39 PM78.8 °F75.2 °F89 %29.80 in10.0 miEast (80°)17.3 mphMostly Cloudy
7:46 PM78.8 °F75.2 °F89 %29.80 in10.0 miEast (90°)17.3 mphMostly Cloudy
7:49 PM78.8 °F75.2 °F89 %29.80 in10.0 miEast (90°)18.4 mphMostly Cloudy
7:51 PM78.8 °F75.2 °F89 %29.80 in10.0 miEast (80°)18.4 mphMostly Cloudy
7:53 PM78.8 °F75.2 °F89 %29.80 in10.0 miENE (70°)17.3 mphMostly Cloudy
7:55 PM78.6 °F75.0 °F89 %29.80 in10.0 miENE (70°)19.6 mphMostly Cloudy
7:56 PM78.8 °F75.2 °F89 %29.81 in10.0 miENE (70°)18.4 mphMostly Cloudy
8:19 PM78.8 °F75.2 °F89 %29.81 in10.0 miENE (70°)16.1 mphMostly Cloudy
8:22 PM78.8 °F75.2 °F89 %29.81 in10.0 miEast (80°)12.7 mphMostly Cloudy
8:25 PM78.8 °F75.2 °F89 %29.81 in10.0 miEast (80°)16.1 mph21.9 mphMostly Cloudy
8:32 PM78.8 °F73.4 °F83 %29.81 in10.0 miEast (90°)17.3 mph23.0 mphOvercast
8:42 PM78.8 °F75.2 °F89 %29.81 in10.0 miEast (80°)17.3 mph25.3 mphOvercast
8:44 PM78.8 °F75.2 °F89 %29.81 in10.0 miEast (80°)18.4 mph25.3 mphMostly Cloudy
8:55 PM78.4 °F72.9 °F83 %29.82 in10.0 miEast (80°)16.1 mph25.3 mphOvercast
8:56 PM78.8 °F73.4 °F83 %29.82 in10.0 miEast (90°)13.8 mph25.3 mphOvercast
9:11 PM78.8 °F73.4 °F83 %29.82 in10.0 miEast (90°)13.8 mphOvercast
9:18 PM78.8 °F75.2 °F89 %29.81 in10.0 miEast (90°)15.0 mphOvercast
9:20 PM78.8 °F73.4 °F83 %29.82 in10.0 miEast (90°)17.3 mphOvercast
9:35 PM78.8 °F73.4 °F83 %29.82 in10.0 miEast (90°)17.3 mphOvercast
9:55 PM79.3 °F74.3 °F84 %29.82 in10.0 miEast (80°)16.1 mphMostly Cloudy
10:15 PM75.2 °F71.6 °F89 %29.82 in10.0 miEast (90°)15.0 mphMostly Cloudy
10:30 PM73.4 °F69.8 °F88 %29.82 in10.0 miEast (90°)16.1 mph21.9 mphOvercast
10:32 PM73.4 °F69.8 °F88 %29.83 in10.0 miEast (100°)13.8 mph21.9 mphMostly Cloudy
10:55 PM71.1 °F66.6 °F86 %29.83 in10.0 miEast (90°)13.8 mphMostly Cloudy
11:55 PM73.2 °F67.3 °F82 %29.83 in10.0 miEast (90°)12.7 mphPartly Cloudy
Hourly data recorded from PGUA, located miles away from Tamuning, Guam







STORIES FROM OUR PARTNERS